| time (UTC) | temp F | wind direction | speed MPH | gust MPH | rain 1hr in | rain 24hr in | rain mn in | humidity % | barometer mb |
| 20260505041540 | 36 | 37 | 2.0 | 3.0 | 0.00 | 0.00 | 0.00 | 59 | 1017.7 |
| 20260505040056 | 36 | 36 | 4.0 | 6.0 | 0.00 | 0.00 | 0.00 | 58 | 1017.8 |
| 20260505034543 | 36 | 36 | 5.0 | 9.0 | 0.00 | 0.00 | 0.00 | 59 | 1017.8 |
| 20260505033038 | 36 | 36 | 5.0 | 8.0 | 0.00 | 0.00 | 0.00 | 58 | 1017.7 |
| 20260505031546 | 37 | 22 | 5.0 | 10.0 | 0.00 | 0.00 | 0.00 | 58 | 1017.5 |
| 20260505030034 | 38 | 34 | 10.0 | 15.0 | 0.00 | 0.00 | 0.00 | 56 | 1017.1 |
| 20260505024532 | 39 | 19 | 10.0 | 15.0 | 0.00 | 0.00 | 0.00 | 55 | 1017.1 |
| 20260505023031 | 40 | 24 | 10.0 | 16.0 | 0.00 | 0.00 | 0.00 | 52 | 1017.1 |
| 20260505021533 | 41 | 12 | 12.0 | 18.0 | 0.00 | 0.00 | 0.00 | 50 | 1017.0 |
| 20260505020039 | 42 | 355 | 12.0 | 20.0 | 0.00 | 0.00 | 0.00 | 48 | 1016.8 |
| 20260505014531 | 43 | 20 | 17.0 | 27.0 | 0.00 | 0.00 | 0.00 | 46 | 1016.8 |
| 20260505013030 | 44 | 22 | 16.0 | 25.0 | 0.00 | 0.00 | 0.00 | 44 | 1016.7 |
| 20260505011529 | 46 | 360 | 19.0 | 28.0 | 0.00 | 0.00 | 0.00 | 37 | 1016.4 |
| 20260505010031 | 47 | 355 | 19.0 | 26.0 | 0.00 | 0.00 | 0.00 | 35 | 1016.3 |
| 20260505004529 | 48 | 346 | 16.0 | 26.0 | 0.00 | 0.00 | 0.00 | 32 | 1016.2 |
| 20260505003029 | 48 | 339 | 21.0 | 28.0 | 0.00 | 0.00 | 0.00 | 30 | 1016.2 |
| 20260505001529 | 49 | 328 | 24.0 | 32.0 | 0.00 | 0.00 | 0.00 | 28 | 1016.1 |
| 20260505000042 | 49 | 344 | 16.0 | 27.0 | 0.00 | 0.00 | 0.00 | 28 | 1016.2 |
| 20260504234528 | 49 | 298 | 18.0 | 34.0 | 0.00 | 0.00 | 0.00 | 25 | 1016.0 |
| 20260504233027 | 49 | 296 | 19.0 | 30.0 | 0.00 | 0.00 | 0.00 | 26 | 1016.0 |
| 20260504231526 | 50 | 331 | 16.0 | 28.0 | 0.00 | 0.00 | 0.00 | 26 | 1016.0 |
| 20260504230027 | 50 | 330 | 19.0 | 32.0 | 0.00 | 0.00 | 0.00 | 26 | 1016.1 |
| 20260504224526 | 49 | 319 | 22.0 | 32.0 | 0.00 | 0.00 | 0.00 | 29 | 1016.1 |
| 20260504223026 | 49 | 346 | 21.0 | 32.0 | 0.00 | 0.00 | 0.00 | 30 | 1016.3 |
| 20260504221527 | 49 | 325 | 20.0 | 31.0 | 0.00 | 0.00 | 0.00 | 30 | 1016.0 |
| 20260504220040 | 50 | 337 | 20.0 | 32.0 | 0.00 | 0.00 | 0.00 | 29 | 1016.0 |
| 20260504214524 | 49 | 310 | 19.0 | 28.0 | 0.00 | 0.00 | 0.00 | 30 | 1016.1 |
| 20260504213022 | 50 | 332 | 18.0 | 33.0 | 0.00 | 0.00 | 0.00 | 31 | 1016.2 |
| 20260504211521 | 48 | 340 | 23.0 | 29.0 | 0.00 | 0.00 | 0.00 | 36 | 1016.3 |
| 20260504210021 | 50 | 348 | 15.0 | 28.0 | 0.00 | 0.00 | 0.00 | 37 | 1016.5 |
| 20260504204534 | 48 | 320 | 15.0 | 26.0 | 0.00 | 0.00 | 0.00 | 37 | 1016.6 |
| 20260504203020 | 47 | 302 | 14.0 | 27.0 | 0.00 | 0.00 | 0.00 | 39 | 1016.7 |
| 20260504201519 | 47 | 319 | 15.0 | 32.0 | 0.00 | 0.00 | 0.00 | 39 | 1016.5 |
| 20260504200020 | 48 | 287 | 16.0 | 30.0 | 0.00 | 0.00 | 0.00 | 37 | 1016.4 |
| 20260504194518 | 47 | 296 | 18.0 | 30.0 | 0.00 | 0.00 | 0.00 | 39 | 1016.5 |
| 20260504193017 | 47 | 313 | 19.0 | 27.0 | 0.00 | 0.00 | 0.00 | 41 | 1016.4 |
| 20260504191515 | 47 | 295 | 18.0 | 28.0 | 0.00 | 0.00 | 0.00 | 45 | 1016.4 |
| 20260504190026 | 47 | 326 | 19.0 | 28.0 | 0.00 | 0.00 | 0.00 | 43 | 1016.5 |
| 20260504184518 | 46 | 331 | 16.0 | 28.0 | 0.00 | 0.00 | 0.00 | 45 | 1016.6 |
| 20260504183018 | 46 | 298 | 16.0 | 26.0 | 0.00 | 0.00 | 0.00 | 45 | 1016.6 |
| 20260504181519 | 46 | 316 | 17.0 | 26.0 | 0.00 | 0.00 | 0.00 | 45 | 1016.6 |
| 20260504180013 | 46 | 295 | 16.0 | 25.0 | 0.00 | 0.00 | 0.00 | 46 | 1016.5 |
| 20260504174516 | 46 | 312 | 19.0 | 27.0 | 0.00 | 0.00 | 0.00 | 49 | 1016.6 |
| 20260504173012 | 46 | 304 | 17.0 | 25.0 | 0.00 | 0.00 | 0.00 | 48 | 1016.7 |
| 20260504171511 | 46 | 304 | 12.0 | 24.0 | 0.00 | 0.00 | 0.00 | 50 | 1016.6 |
| 20260504081556 | 40 | 355 | 15.0 | 20.0 | 0.00 | 0.00 | 0.00 | 74 | 1016.4 |